Time,TemperatureF,DewpointF,PressureIn,WindDirection,WindDirectionDegrees,WindSpeedMPH,WindSpeedGustMPH,Humidity,HourlyPrecipIn,Conditions,Clouds,dailyrainin,SoftwareType,DateUTC
2017-09-24 00:04:00,75.0,68.7,29.91,ENE,69,0.0,0.0,81,0.00,,,0.00,meteobridge,2017-09-24 04:04:00,
2017-09-24 00:09:00,74.8,68.5,29.91,ENE,70,0.0,0.0,81,0.00,,,0.00,meteobridge,2017-09-24 04:09:00,
2017-09-24 00:14:00,74.8,68.5,29.91,ENE,69,0.0,0.0,81,0.00,,,0.00,meteobridge,2017-09-24 04:14:00,
2017-09-24 00:25:00,74.6,68.0,29.90,ENE,62,0.0,1.0,80,0.00,,,0.00,Wunderground v.1.15,2017-09-24 04:25:00,
2017-09-24 00:31:00,74.5,67.8,29.90,ENE,70,0.0,0.0,80,0.00,,,0.00,meteobridge,2017-09-24 04:31:00,
2017-09-24 00:36:00,74.3,67.6,29.89,ENE,69,0.0,0.0,80,0.00,,,0.00,meteobridge,2017-09-24 04:36:00,
2017-09-24 00:41:00,74.3,67.6,29.89,East,79,0.0,0.0,80,0.00,,,0.00,meteobridge,2017-09-24 04:41:00,
2017-09-24 00:46:00,74.1,67.6,29.89,East,79,0.0,0.0,80,0.00,,,0.00,meteobridge,2017-09-24 04:46:00,
2017-09-24 00:51:00,74.1,67.6,29.89,East,79,0.0,0.0,80,0.00,,,0.00,meteobridge,2017-09-24 04:51:00,
2017-09-24 00:56:00,74.1,67.6,29.89,ENE,73,0.0,0.0,80,0.00,,,0.00,meteobridge,2017-09-24 04:56:00,
2017-09-24 01:01:00,73.9,67.1,29.89,ENE,72,0.0,0.0,79,0.00,,,0.00,meteobridge,2017-09-24 05:01:00,
2017-09-24 01:06:00,73.9,67.1,29.89,ENE,72,0.0,0.0,79,0.00,,,0.00,meteobridge,2017-09-24 05:06:00,
2017-09-24 01:11:00,73.9,67.1,29.89,ENE,72,0.0,0.0,79,0.00,,,0.00,meteobridge,2017-09-24 05:11:00,
2017-09-24 01:16:00,73.9,67.1,29.89,ENE,72,0.0,0.0,79,0.00,,,0.00,meteobridge,2017-09-24 05:16:00,
2017-09-24 01:22:00,73.9,67.1,29.90,ENE,72,0.0,0.0,79,0.00,,,0.00,meteobridge,2017-09-24 05:22:00,
2017-09-24 01:27:00,73.9,67.1,29.90,ENE,66,0.0,0.0,79,0.00,,,0.00,meteobridge,2017-09-24 05:27:00,
2017-09-24 01:32:00,74.1,67.1,29.90,ENE,66,0.0,0.0,79,0.00,,,0.00,meteobridge,2017-09-24 05:32:00,
2017-09-24 01:37:00,74.1,67.1,29.89,South,184,0.0,0.0,79,0.00,,,0.00,meteobridge,2017-09-24 05:37:00,
2017-09-24 01:42:00,74.1,67.1,29.89,South,184,0.0,0.0,79,0.00,,,0.00,meteobridge,2017-09-24 05:42:00,
2017-09-24 01:47:00,74.1,67.1,29.89,South,184,0.0,0.0,79,0.00,,,0.00,meteobridge,2017-09-24 05:47:00,
2017-09-24 01:52:00,74.1,67.1,29.89,East,79,0.0,0.0,79,0.00,,,0.00,meteobridge,2017-09-24 05:52:00,
2017-09-24 01:53:00,73.9,67.1,29.89,East,79,0.0,0.0,79,0.00,,,0.00,meteobridge,2017-09-24 05:53:00,
2017-09-24 01:58:00,74.1,67.1,29.89,ENE,68,0.0,0.0,79,0.00,,,0.00,meteobridge,2017-09-24 05:58:00,
2017-09-24 02:03:00,74.1,67.1,29.89,NW,304,0.0,0.0,79,0.00,,,0.00,meteobridge,2017-09-24 06:03:00,
2017-09-24 02:08:00,74.1,67.1,29.89,East,86,0.0,0.0,79,0.00,,,0.00,meteobridge,2017-09-24 06:08:00,
2017-09-24 02:13:00,73.9,67.1,29.88,East,86,0.0,0.0,79,0.00,,,0.00,meteobridge,2017-09-24 06:13:00,
2017-09-24 02:18:00,73.9,67.1,29.88,East,86,0.0,0.0,79,0.00,,,0.00,meteobridge,2017-09-24 06:18:00,
2017-09-24 02:23:00,73.9,67.1,29.88,East,86,0.0,0.0,79,0.00,,,0.00,meteobridge,2017-09-24 06:23:00,
2017-09-24 02:28:00,74.1,67.1,29.88,ENE,67,0.0,0.0,79,0.00,,,0.00,meteobridge,2017-09-24 06:28:00,
2017-09-24 02:33:00,74.1,67.1,29.88,ENE,66,0.0,0.0,79,0.00,,,0.00,meteobridge,2017-09-24 06:33:00,
2017-09-24 02:38:00,74.1,67.1,29.88,ENE,66,0.0,0.0,79,0.00,,,0.00,meteobridge,2017-09-24 06:38:00,
2017-09-24 02:44:00,74.1,67.1,29.88,ENE,66,0.0,0.0,79,0.00,,,0.00,meteobridge,2017-09-24 06:44:00,
2017-09-24 02:49:00,74.1,67.1,29.89,ENE,66,0.0,0.0,79,0.00,,,0.00,meteobridge,2017-09-24 06:49:00,
2017-09-24 02:54:00,74.5,67.5,29.89,ENE,70,0.0,0.0,79,0.00,,,0.00,meteobridge,2017-09-24 06:54:00,
2017-09-24 02:59:00,74.5,67.5,29.89,ENE,69,0.0,0.0,79,0.00,,,0.00,meteobridge,2017-09-24 06:59:00,
2017-09-24 03:04:00,74.5,67.5,29.88,ENE,69,0.0,0.0,79,0.00,,,0.00,meteobridge,2017-09-24 07:04:00,
2017-09-24 03:09:00,74.3,67.3,29.89,ENE,69,0.0,0.0,79,0.00,,,0.00,meteobridge,2017-09-24 07:09:00,
2017-09-24 03:14:00,74.3,67.3,29.89,West,260,0.0,0.0,79,0.00,,,0.00,meteobridge,2017-09-24 07:14:00,
2017-09-24 03:19:00,74.1,67.1,29.88,West,260,0.0,0.0,79,0.00,,,0.00,meteobridge,2017-09-24 07:19:00,
2017-09-24 03:25:00,74.2,67.3,29.88,West,260,0.0,0.0,79,0.00,,,0.00,Wunderground v.1.15,2017-09-24 07:25:00,
2017-09-24 03:31:00,73.9,67.1,29.88,West,260,0.0,0.0,79,0.00,,,0.00,meteobridge,2017-09-24 07:31:00,
2017-09-24 03:36:00,73.9,67.1,29.88,West,260,0.0,0.0,79,0.00,,,0.00,meteobridge,2017-09-24 07:36:00,
2017-09-24 03:41:00,73.8,66.9,29.88,West,260,0.0,0.0,79,0.00,,,0.00,meteobridge,2017-09-24 07:41:00,
2017-09-24 03:46:00,73.9,67.1,29.88,West,260,0.0,0.0,79,0.00,,,0.00,meteobridge,2017-09-24 07:46:00,
2017-09-24 03:51:00,73.9,67.1,29.88,West,260,0.0,0.0,79,0.00,,,0.00,meteobridge,2017-09-24 07:51:00,
2017-09-24 03:56:00,73.9,67.1,29.88,West,260,0.0,0.0,79,0.00,,,0.00,meteobridge,2017-09-24 07:56:00,
2017-09-24 03:58:00,73.9,67.1,29.88,West,260,0.0,0.0,79,0.00,,,0.00,meteobridge,2017-09-24 07:58:00,
2017-09-24 04:03:00,74.1,67.1,29.88,West,260,0.0,0.0,79,0.00,,,0.00,meteobridge,2017-09-24 08:03:00,
2017-09-24 04:08:00,74.1,67.1,29.88,WSW,255,0.0,0.0,79,0.00,,,0.00,meteobridge,2017-09-24 08:08:00,
2017-09-24 04:13:00,74.5,67.8,29.89,WSW,254,0.0,0.0,80,0.00,,,0.00,meteobridge,2017-09-24 08:13:00,
2017-09-24 04:16:00,74.5,67.8,29.89,WSW,255,0.0,0.0,80,0.00,,,0.00,meteobridge,2017-09-24 08:16:00,
2017-09-24 04:18:00,74.5,67.8,29.89,WSW,254,0.0,0.0,80,0.00,,,0.00,meteobridge,2017-09-24 08:18:00,
2017-09-24 04:23:00,74.7,68.0,29.89,NW,316,0.0,0.0,80,0.00,,,0.00,meteobridge,2017-09-24 08:23:00,
2017-09-24 04:28:00,74.7,67.6,29.89,NW,315,0.0,0.0,79,0.00,,,0.00,meteobridge,2017-09-24 08:28:00,
2017-09-24 04:33:00,74.7,67.6,29.89,NW,315,0.0,0.0,79,0.00,,,0.00,meteobridge,2017-09-24 08:33:00,
2017-09-24 04:39:00,74.8,67.8,29.89,NW,315,0.0,0.0,79,0.00,,,0.00,meteobridge,2017-09-24 08:39:00,
2017-09-24 04:44:00,74.8,67.8,29.89,NW,314,0.0,0.0,79,0.00,,,0.00,meteobridge,2017-09-24 08:44:00,
2017-09-24 04:54:00,74.8,67.8,29.88,NW,315,0.0,0.0,79,0.00,,,0.00,meteobridge,2017-09-24 08:54:00,
2017-09-24 04:59:00,74.7,67.6,29.88,NW,314,0.0,0.0,79,0.00,,,0.00,meteobridge,2017-09-24 08:59:00,
2017-09-24 05:04:00,74.5,67.5,29.88,NW,304,0.0,0.0,79,0.00,,,0.00,meteobridge,2017-09-24 09:04:00,
2017-09-24 05:09:00,74.3,67.3,29.88,NW,304,0.0,0.0,79,0.00,,,0.00,meteobridge,2017-09-24 09:09:00,
2017-09-24 05:14:00,74.1,67.1,29.88,NW,304,0.0,0.0,79,0.00,,,0.00,meteobridge,2017-09-24 09:14:00,
2017-09-24 05:19:00,74.1,67.1,29.88,NW,304,0.0,0.0,79,0.00,,,0.00,meteobridge,2017-09-24 09:19:00,
2017-09-24 05:25:00,74.2,67.3,29.88,NW,312,0.0,0.0,79,0.00,,,0.00,Wunderground v.1.15,2017-09-24 09:25:00,
2017-09-24 05:31:00,73.9,67.1,29.88,NNW,327,0.0,0.0,79,0.00,,,0.00,meteobridge,2017-09-24 09:31:00,
2017-09-24 05:36:00,73.9,67.1,29.88,East,86,0.0,0.0,79,0.00,,,0.00,meteobridge,2017-09-24 09:36:00,
2017-09-24 05:41:00,73.9,67.1,29.89,East,79,0.0,0.0,79,0.00,,,0.00,meteobridge,2017-09-24 09:41:00,
2017-09-24 05:46:00,73.9,67.1,29.88,East,79,0.0,0.0,79,0.00,,,0.00,meteobridge,2017-09-24 09:46:00,
2017-09-24 05:51:00,73.9,67.1,29.89,East,79,0.0,0.0,79,0.00,,,0.00,meteobridge,2017-09-24 09:51:00,
2017-09-24 05:56:00,73.9,67.5,29.89,East,79,0.0,0.0,80,0.00,,,0.00,meteobridge,2017-09-24 09:56:00,
2017-09-24 06:01:00,73.9,67.5,29.89,East,79,0.0,0.0,80,0.00,,,0.00,meteobridge,2017-09-24 10:01:00,
2017-09-24 06:06:00,73.8,67.3,29.89,ENE,77,0.0,0.0,80,0.00,,,0.00,meteobridge,2017-09-24 10:06:00,
2017-09-24 06:08:00,73.8,67.3,29.89,ENE,76,0.0,0.0,80,0.00,,,0.00,meteobridge,2017-09-24 10:08:00,
2017-09-24 06:13:00,73.9,67.5,29.89,ENE,75,0.0,0.0,80,0.00,,,0.00,meteobridge,2017-09-24 10:13:00,
2017-09-24 06:18:00,73.9,67.5,29.89,ENE,75,0.0,0.0,80,0.00,,,0.00,meteobridge,2017-09-24 10:18:00,
2017-09-24 06:23:00,73.9,67.5,29.90,ENE,70,0.0,0.0,80,0.00,,,0.00,meteobridge,2017-09-24 10:23:00,
2017-09-24 06:28:00,74.1,67.6,29.90,ENE,73,0.0,0.0,80,0.00,,,0.00,meteobridge,2017-09-24 10:28:00,
2017-09-24 06:33:00,74.1,67.6,29.90,ENE,74,0.0,0.0,80,0.00,,,0.00,meteobridge,2017-09-24 10:33:00,
2017-09-24 06:38:00,74.1,67.6,29.90,ENE,66,0.0,0.0,80,0.00,,,0.00,meteobridge,2017-09-24 10:38:00,
2017-09-24 06:43:00,74.1,67.6,29.91,ENE,66,0.0,0.0,80,0.00,,,0.00,meteobridge,2017-09-24 10:43:00,
2017-09-24 06:48:00,74.1,67.6,29.91,North,4,0.0,0.0,80,0.00,,,0.00,meteobridge,2017-09-24 10:48:00,
2017-09-24 06:53:00,74.1,68.0,29.91,NNE,12,0.0,0.0,81,0.00,,,0.00,meteobridge,2017-09-24 10:53:00,
2017-09-24 06:58:00,74.1,68.0,29.91,NE,51,0.0,0.0,81,0.00,,,0.00,meteobridge,2017-09-24 10:58:00,
2017-09-24 07:03:00,74.1,68.0,29.91,NE,51,0.0,0.0,81,0.00,,,0.00,meteobridge,2017-09-24 11:03:00,
2017-09-24 07:08:00,74.1,68.0,29.91,NE,51,0.0,0.0,81,0.00,,,0.00,meteobridge,2017-09-24 11:08:00,
2017-09-24 07:12:00,73.9,67.8,29.91,NE,51,0.0,0.0,81,0.00,,,0.00,meteobridge,2017-09-24 11:12:00,
2017-09-24 07:17:00,73.9,67.8,29.91,NE,51,0.0,0.0,81,0.00,,,0.00,meteobridge,2017-09-24 11:17:00,
2017-09-24 07:22:00,73.8,67.6,29.91,NE,51,0.0,0.0,81,0.00,,,0.00,meteobridge,2017-09-24 11:22:00,
2017-09-24 07:27:00,73.8,67.6,29.91,NE,51,0.0,0.0,81,0.00,,,0.00,meteobridge,2017-09-24 11:27:00,
2017-09-24 07:32:00,73.9,67.8,29.91,ENE,58,0.0,0.0,81,0.00,,,0.00,meteobridge,2017-09-24 11:32:00,
2017-09-24 07:37:00,74.1,68.0,29.91,ENE,58,0.0,0.0,81,0.00,,,0.00,meteobridge,2017-09-24 11:37:00,
2017-09-24 07:42:00,74.1,68.0,29.91,ENE,58,0.0,0.0,81,0.00,,,0.00,meteobridge,2017-09-24 11:42:00,
2017-09-24 07:47:00,74.3,68.0,29.91,ENE,58,0.0,0.0,81,0.00,,,0.00,meteobridge,2017-09-24 11:47:00,
2017-09-24 07:52:00,74.1,68.0,29.91,ENE,58,0.0,0.0,81,0.00,,,0.00,meteobridge,2017-09-24 11:52:00,
2017-09-24 07:57:00,74.7,68.4,29.91,ENE,58,0.0,0.0,81,0.00,,,0.00,meteobridge,2017-09-24 11:57:00,
2017-09-24 08:03:00,75.4,69.1,29.91,NE,54,0.0,0.0,81,0.00,,,0.00,meteobridge,2017-09-24 12:03:00,
2017-09-24 08:08:00,75.9,69.6,29.91,North,4,0.0,0.0,81,0.00,,,0.00,meteobridge,2017-09-24 12:08:00,
2017-09-24 08:13:00,76.3,69.6,29.91,NNE,22,0.0,0.0,80,0.00,,,0.00,meteobridge,2017-09-24 12:13:00,
2017-09-24 08:18:00,76.6,69.6,29.91,NNE,22,0.0,0.0,79,0.00,,,0.00,meteobridge,2017-09-24 12:18:00,
2017-09-24 08:23:00,77.0,70.0,29.91,ENE,59,0.0,0.0,79,0.00,,,0.00,meteobridge,2017-09-24 12:23:00,
2017-09-24 08:28:00,78.1,71.1,29.91,ENE,59,0.0,0.0,79,0.00,,,0.00,meteobridge,2017-09-24 12:28:00,
2017-09-24 08:33:00,79.9,73.6,29.92,ENE,70,0.0,0.0,81,0.00,,,0.00,meteobridge,2017-09-24 12:33:00,
2017-09-24 08:38:00,81.1,75.6,29.92,ENE,71,0.0,0.0,83,0.00,,,0.00,meteobridge,2017-09-24 12:38:00,
2017-09-24 08:43:00,82.2,76.5,29.92,ENE,64,0.0,0.0,83,0.00,,,0.00,meteobridge,2017-09-24 12:43:00,
2017-09-24 08:48:00,83.1,77.0,29.92,ENE,64,0.0,5.0,82,0.00,,,0.00,meteobridge,2017-09-24 12:48:00,
2017-09-24 08:53:00,82.8,75.9,29.92,ENE,72,0.0,2.0,80,0.00,,,0.00,meteobridge,2017-09-24 12:53:00,
2017-09-24 08:58:00,82.8,75.9,29.93,ENE,72,0.9,2.0,80,0.00,,,0.00,meteobridge,2017-09-24 12:58:00,
2017-09-24 09:03:00,83.1,76.3,29.93,ENE,75,0.0,2.0,80,0.00,,,0.00,meteobridge,2017-09-24 13:03:00,
2017-09-24 09:08:00,83.8,76.3,29.93,ENE,77,0.9,3.0,78,0.00,,,0.00,meteobridge,2017-09-24 13:08:00,
2017-09-24 09:14:00,83.8,76.3,29.93,East,82,0.0,3.0,78,0.00,,,0.00,meteobridge,2017-09-24 13:14:00,
2017-09-24 09:19:00,84.4,76.5,29.93,ENE,73,0.0,3.0,77,0.00,,,0.00,meteobridge,2017-09-24 13:19:00,
2017-09-24 09:24:00,84.2,76.3,29.93,ENE,70,2.0,5.0,77,0.00,,,0.00,meteobridge,2017-09-24 13:24:00,
2017-09-24 09:29:00,84.4,76.5,29.93,ENE,65,0.9,3.0,77,0.00,,,0.00,meteobridge,2017-09-24 13:29:00,
2017-09-24 09:34:00,84.7,76.3,29.93,ENE,69,0.0,6.0,76,0.00,,,0.00,meteobridge,2017-09-24 13:34:00,
2017-09-24 09:39:00,85.5,77.0,29.93,ENE,58,0.9,4.0,76,0.00,,,0.00,meteobridge,2017-09-24 13:39:00,
2017-09-24 09:44:00,85.6,75.9,29.93,ENE,68,0.9,4.0,73,0.00,,,0.00,meteobridge,2017-09-24 13:44:00,
2017-09-24 09:49:00,85.5,75.7,29.93,East,79,2.0,6.0,73,0.00,,,0.00,meteobridge,2017-09-24 13:49:00,
2017-09-24 09:54:00,85.5,75.7,29.93,ENE,71,0.0,5.0,73,0.00,,,0.00,meteobridge,2017-09-24 13:54:00,
2017-09-24 09:59:00,85.6,75.2,29.93,ENE,64,2.0,6.0,71,0.00,,,0.00,meteobridge,2017-09-24 13:59:00,
2017-09-24 10:04:00,85.5,75.7,29.93,ENE,65,0.9,5.0,73,0.00,,,0.00,meteobridge,2017-09-24 14:04:00,
2017-09-24 10:09:00,85.3,75.6,29.93,ENE,64,0.9,5.0,73,0.00,,,0.00,meteobridge,2017-09-24 14:09:00,
2017-09-24 10:14:00,85.8,75.7,29.93,NE,53,4.9,7.0,72,0.00,,,0.00,meteobridge,2017-09-24 14:14:00,
2017-09-24 10:25:00,85.7,75.2,29.93,NE,48,3.0,3.0,71,0.00,,,0.00,Wunderground v.1.15,2017-09-24 14:25:00,
2017-09-24 10:31:00,85.8,75.7,29.93,ENE,68,6.0,6.0,72,0.00,,,0.00,meteobridge,2017-09-24 14:31:00,
2017-09-24 10:36:00,86.2,76.1,29.93,NE,56,2.0,8.0,72,0.00,,,0.00,meteobridge,2017-09-24 14:36:00,
2017-09-24 10:41:00,85.5,75.4,29.93,East,79,6.0,10.0,72,0.00,,,0.00,meteobridge,2017-09-24 14:41:00,
2017-09-24 10:46:00,84.7,75.6,29.94,ENE,58,0.0,6.0,74,0.00,,,0.00,meteobridge,2017-09-24 14:46:00,
2017-09-24 10:51:00,85.1,75.9,29.94,ENE,65,0.0,2.0,74,0.00,,,0.00,meteobridge,2017-09-24 14:51:00,
2017-09-24 10:56:00,86.2,77.0,29.93,ENE,65,4.9,5.0,74,0.00,,,0.00,meteobridge,2017-09-24 14:56:00,
2017-09-24 11:01:00,86.5,74.7,29.94,ENE,75,4.9,5.0,68,0.00,,,0.00,meteobridge,2017-09-24 15:01:00,
2017-09-24 11:06:00,86.4,75.0,29.94,East,80,2.9,8.0,69,0.00,,,0.00,meteobridge,2017-09-24 15:06:00,
2017-09-24 11:11:00,86.4,75.0,29.94,ENE,73,4.9,10.0,69,0.00,,,0.00,meteobridge,2017-09-24 15:11:00,
2017-09-24 11:16:00,86.2,74.8,29.93,ENE,77,4.9,6.0,69,0.00,,,0.00,meteobridge,2017-09-24 15:16:00,
2017-09-24 11:22:00,86.2,74.8,29.94,East,85,0.0,3.0,69,0.00,,,0.00,meteobridge,2017-09-24 15:22:00,
2017-09-24 11:27:00,86.4,74.1,29.94,ENE,68,0.9,9.0,67,0.00,,,0.00,meteobridge,2017-09-24 15:27:00,
2017-09-24 11:32:00,86.5,74.3,29.94,East,83,2.9,6.0,67,0.00,,,0.00,meteobridge,2017-09-24 15:32:00,
2017-09-24 11:37:00,87.1,74.3,29.94,ENE,73,0.0,3.0,66,0.00,,,0.00,meteobridge,2017-09-24 15:37:00,
2017-09-24 11:42:00,88.2,75.4,29.94,East,100,6.9,8.0,66,0.00,,,0.00,meteobridge,2017-09-24 15:42:00,
2017-09-24 11:47:00,89.1,74.8,29.94,ENE,75,0.9,6.0,63,0.00,,,0.00,meteobridge,2017-09-24 15:47:00,
2017-09-24 11:52:00,89.2,75.9,29.94,ENE,72,0.0,1.0,65,0.00,,,0.00,meteobridge,2017-09-24 15:52:00,
2017-09-24 11:57:00,90.1,75.4,29.93,East,94,2.9,8.0,62,0.00,,,0.00,meteobridge,2017-09-24 15:57:00,
2017-09-24 12:02:00,91.0,76.3,29.93,ENE,66,0.0,1.0,62,0.00,,,0.00,meteobridge,2017-09-24 16:02:00,
2017-09-24 12:07:00,91.6,75.2,29.94,East,91,2.0,8.0,59,0.00,,,0.00,meteobridge,2017-09-24 16:07:00,
2017-09-24 12:12:00,90.0,74.7,29.93,East,80,2.9,6.0,61,0.00,,,0.00,meteobridge,2017-09-24 16:12:00,
2017-09-24 12:17:00,89.8,75.6,29.93,East,86,2.0,4.0,63,0.00,,,0.00,meteobridge,2017-09-24 16:17:00,
2017-09-24 12:23:00,90.0,74.1,29.93,ENE,73,2.0,5.0,60,0.00,,,0.00,meteobridge,2017-09-24 16:23:00,
2017-09-24 12:28:00,89.2,74.5,29.93,ENE,69,4.9,5.0,62,0.00,,,0.00,meteobridge,2017-09-24 16:28:00,
2017-09-24 12:33:00,89.1,74.3,29.93,ENE,68,4.9,7.0,62,0.00,,,0.00,meteobridge,2017-09-24 16:33:00,
2017-09-24 12:38:00,89.2,75.4,29.93,East,87,6.9,7.0,64,0.00,,,0.00,meteobridge,2017-09-24 16:38:00,
2017-09-24 12:43:00,90.1,74.8,29.93,East,82,6.0,9.0,61,0.00,,,0.00,meteobridge,2017-09-24 16:43:00,
2017-09-24 12:48:00,90.7,74.3,29.93,ENE,75,4.9,7.0,59,0.00,,,0.00,meteobridge,2017-09-24 16:48:00,
2017-09-24 12:53:00,90.1,73.9,29.93,East,100,4.0,9.0,59,0.00,,,0.00,meteobridge,2017-09-24 16:53:00,
2017-09-24 12:58:00,89.8,74.1,29.93,ENE,69,2.9,6.0,60,0.00,,,0.00,meteobridge,2017-09-24 16:58:00,
2017-09-24 13:04:00,91.4,75.0,29.92,East,79,2.9,4.0,59,0.00,,,0.00,meteobridge,2017-09-24 17:04:00,
2017-09-24 13:09:00,91.9,73.9,29.92,ENE,61,2.0,4.0,56,0.00,,,0.00,meteobridge,2017-09-24 17:09:00,
2017-09-24 13:14:00,92.8,75.4,29.91,ENE,62,0.0,2.0,57,0.00,,,0.00,meteobridge,2017-09-24 17:14:00,
2017-09-24 13:19:00,93.0,73.9,29.92,ENE,70,0.0,4.0,54,0.00,,,0.00,meteobridge,2017-09-24 17:19:00,
2017-09-24 13:25:00,92.3,74.9,29.92,East,82,1.0,3.0,57,0.00,,,0.00,Wunderground v.1.15,2017-09-24 17:25:00,
2017-09-24 13:30:00,91.0,74.1,29.91,East,82,0.0,1.0,58,0.00,,,0.00,meteobridge,2017-09-24 17:30:00,
2017-09-24 13:36:00,90.3,73.0,29.91,ENE,77,2.0,4.0,57,0.00,,,0.00,meteobridge,2017-09-24 17:36:00,
2017-09-24 13:41:00,89.2,72.5,29.91,ENE,72,0.9,6.0,58,0.00,,,0.00,meteobridge,2017-09-24 17:41:00,
2017-09-24 13:46:00,89.4,73.2,29.91,ENE,70,0.9,2.0,59,0.00,,,0.00,meteobridge,2017-09-24 17:46:00,
2017-09-24 13:51:00,91.2,74.3,29.91,ENE,65,0.0,4.0,58,0.00,,,0.00,meteobridge,2017-09-24 17:51:00,
2017-09-24 13:56:00,93.0,73.9,29.91,ENE,78,2.0,6.0,54,0.00,,,0.00,meteobridge,2017-09-24 17:56:00,
2017-09-24 14:01:00,93.6,74.5,29.91,ENE,62,0.0,6.0,54,0.00,,,0.00,meteobridge,2017-09-24 18:01:00,